Regional Weather Roundup
Issued by NWS New Orleans/Baton Rouge, LA

Home | Current Version | Previous Version | Text Only | Print | Product List | Glossary On
Versions: 1 2 3 4 5 6 7 8 9 10 11 12 13 14 15 16 17 18 19 20 21 22 23 24 25 26 27 28 29 30 31 32 33 34 35 36 37 38 39 40 41 42 43 44 45 46 47 48 49 50
000
ASUS44 KLIX 080810
RWRLIX
NEW ORLEANS REGIONAL WEATHER ROUNDUP
NATIONAL WEATHER SERVICE NEW ORLEANS LA
200 AM CST MON FEB 08 2016

NOTE: "FAIR" INDICATES FEW OR NO CLOUDS BELOW 12,000 FEET WITH NO
      SIGNIFICANT WEATHER AND/OR OBSTRUCTIONS TO VISIBILITY.
      SKY/WX - SKY CONDITION AND SIGNIFICANT WEATHER.
      TMP - AIR TEMPERATURE.     DP    - DEWPOINT TEMPERATURE.
      RH  - RELATIVE HUMIDITY.   PRES  - PRESSURE.
      HI  - HEAT INDEX.          WCI   - WIND CHILL INDEX.

*  THESE STATIONS ARE NOT NWS OR FAA STATIONS AND ARE NOT UNDER
   NWS QUALITY CONTROL.

LAZ038-040-048-061>063-065>067-069-080900-
SOUTHEAST LOUISIANA

CITY           SKY/WX    TMP DP  RH WIND       PRES   REMARKS
N.O. AUDUBON   NOT AVBL
N.O. INTL ARPT CLEAR     46  34  62 SW6       30.13F
N.O. LAKEFRONT CLEAR     49  39  68 W15       30.13F
N.O. DOWNTOWN*   N/A     48  34  57 MISG      30.13F
RESERVE*         N/A     42  37  80 CALM      30.14S
SLIDELL        PTCLDY    42  36  79 CALM      30.11F
BATON ROUGE    CLEAR     42  34  73 W5        30.12F
BOOTHVILLE     CLEAR     47  39  74 W7        30.14F
BELLE CHASSE   CLEAR     37  34  89 W3        30.13F
BOGALUSA*        N/A     41  32  70 CALM      30.11F
GALLIANO*      SUNNY    N/A N/A N/A CALM      30.15S
NEW ROADS*       N/A     40  36  85 CALM      30.13S
GONZALES*        N/A     39  35  86 CALM      30.13F
HAMMOND*       CLEAR     43  32  65 W3        30.12F
HOUMA*         CLEAR     39  37  95 CALM      30.15S
PORT FOURCHON* SUNNY     52  45  76 W6        30.15F

$$

MSZ070-080>082-080900-
SOUTHERN MISSISSIPPI

CITY           SKY/WX    TMP DP  RH WIND       PRES   REMARKS
MCCOMB         CLEAR     40  33  76 SW5       30.08F
GULFPORT       CLEAR     41  35  79 W5        30.10F
BILOXI         CLEAR     46  37  72 W6        30.09F
PASCAGOULA     CLEAR     45  35  68 W5        30.09F

$$

COASTAL OBSERVATIONS
LAKE AND NEARSHORE STATIONS

STATION/POSITION TIME  TEMP    WIND        PRES    WAVE
                       AIR SEA DIR/SP/G            HT/PER
                 (UTC) (F)     (DEG/KT/KT) (MB)    (FT/S)
PASCAGOULA       0700   51     280/ 10/ 14 1019.2
WAVELAND YACHT   0700   46 54  280/  4/  6 1019.9
GRAND ISLE       0700   53 56  290/ 10/ 11 1020.8
NEW CANAL        0700   49 54  250/  6/  8 1019.8
SHELL BEACH      0700   47 55  260/  8/  9 1020.0

OFFSHORE STATIONS

STATION/POSITION TIME  TEMP    WIND        PRES    WAVE
                       AIR SEA DIR/SP/G            HT/PER
                 (UTC) (F)     (DEG/KT/KT) (MB)    (FT/S)

$$




USA.gov is the U.S. government's official web portal to all federal, state and local government web resources and services.